Location: Sungai Bunut
(2.6333°N, 113.7333°E)
Time: 07:05:49
(UTC+00:00)

Hubble Space Telescope - Visible Passes

Search period start: 23 September 2023 00:00
Search period end: 03 October 2023 00:00
Orbit: 522 x 525 km, 28.5° (Epoch: 22 September)

Date Brightness Start Highest point End Pass type
(mag) Time Alt. Az. Time Alt. Az. Time Alt. Az.
27 Sep 3.1 12:11:43 10° SW 12:12:55 18° SW 12:12:55 18° SW visible
28 Sep 1.9 11:56:08 10° SW 11:58:47 38° SW 11:58:47 38° SW visible
29 Sep 0.5 11:40:38 10° WSW 11:44:39 87° S 11:44:39 87° S visible
29 Sep 2.4 21:51:48 10° NNW 21:55:21 29° NNE 21:58:54 10° E visible
30 Sep 0.8 11:25:09 10° WSW 11:29:11 71° NNW 11:30:31 39° NE visible
30 Sep 1.9 21:36:06 10° NW 21:39:52 38° NNE 21:43:38 10° E visible
01 Oct 1.3 11:09:44 10° WSW 11:13:40 53° NNW 11:16:21 19° NE visible
01 Oct 1.4 21:21:02 14° NW 21:24:22 50° NNE 21:28:17 10° ESE visible
02 Oct 1.8 10:54:22 10° W 10:58:10 40° NNW 11:01:58 10° NE visible
02 Oct 0.9 21:06:53 28° NW 21:08:51 67° NNE 21:12:52 10° ESE visible
